FW1212 Weather Reports


time (UTC)temp
C
wind
direction
speed
KPH
gust
KPH
rain 1hr
cm
rain 24hr
cm
rain mn
cm
humidity
%
barometer
mb
20260503200035 9 169 0.0 0.0 0.00 0.00 0.00 73 1015.2
20260503194536 10 169 0.0 0.0 0.00 0.00 0.00 73 1015.1
20260503193036 11 169 0.0 0.0 0.00 0.00 0.00 69 1015.1
20260503191534 11 169 0.0 0.0 0.00 0.00 0.00 61 1015.1
20260503190033 11 169 0.0 1.6 0.00 0.00 0.00 60 1015.2
20260503184546 12 169 0.0 1.6 0.00 0.00 0.00 60 1015.2
20260503183032 12 169 0.0 4.8 0.00 0.00 0.00 58 1015.2
20260503181534 13 169 0.0 1.6 0.00 0.00 0.00 57 1015.1
20260503180036 13 169 0.0 3.2 0.00 0.00 0.00 55 1015.0
20260503174533 15 169 0.0 1.6 0.00 0.00 0.00 54 1015.0
20260503173035 15 169 0.0 3.2 0.00 0.00 0.00 52 1014.9
20260503171545 16 169 0.0 0.0 0.00 0.00 0.00 50 1015.0
20260503081508 13 160 3.2 8.0 0.00 0.00 0.00 47 1020.7
20260503071700 12 186 3.2 12.9 0.00 0.00 0.00 47 1020.9
20260503054544 5 347 0.0 1.6 0.00 0.00 0.00 73 1021.2
20260503053037 3 347 0.0 1.6 0.00 0.00 0.00 75 1021.4
20260503051530 3 345 0.0 3.2 0.00 0.00 0.00 76 1021.2
20260503050027 2 342 0.0 3.2 0.00 0.00 0.00 77 1021.2
20260503044541 2 343 0.0 1.6 0.00 0.00 0.00 77 1021.2
20260503043038 1 318 0.0 0.0 0.00 0.00 0.00 79 1021.2
20260503041522 1 312 0.0 0.0 0.00 0.00 0.00 79 1021.2
20260503040021 0 304 0.0 3.2 0.00 0.00 0.00 79 1021.2
20260503034521 0 300 1.6 3.2 0.00 0.00 0.00 79 1021.1
20260503033021 -1 245 1.6 4.8 0.00 0.00 0.00 79 1021.1
20260503031526 -1 281 1.6 4.8 0.00 0.00 0.00 80 1021.0
20260503030017 -1 281 0.0 0.0 0.00 0.00 0.00 81 1021.0
20260503024516 -1 281 0.0 0.0 0.00 0.00 0.00 81 1020.9
20260503023015 -1 281 0.0 0.0 0.00 0.00 0.00 81 1020.8
20260503021516 -1 281 0.0 1.6 0.00 0.00 0.00 82 1020.9
20260503020014 -1 281 0.0 0.0 0.00 0.00 0.00 82 1020.9
20260503014514 -1 281 0.0 0.0 0.00 0.00 0.00 81 1020.9
20260503013013 -1 281 0.0 0.0 0.00 0.00 0.00 81 1021.0
20260503011509 -1 281 0.0 0.0 0.00 0.00 0.00 79 1021.0
20260503010008 0 281 0.0 0.0 0.00 0.00 0.00 79 1021.0
20260503004507 0 281 0.0 0.0 0.00 0.00 0.00 79 1020.9
20260503003006 0 281 0.0 3.2 0.00 0.00 0.00 79 1020.9
20260503001503 0 283 0.0 3.2 0.00 0.00 0.00 79 1021.0
20260503000002 0 285 0.0 1.6 0.00 0.00 0.00 79 1021.1
20260502234605 0 285 0.0 0.0 0.00 0.00 0.00 79 1021.1
20260502233100 0 285 0.0 0.0 0.00 0.00 0.00 79 1021.1
20260502231556 0 287 0.0 0.0 0.00 0.00 0.00 78 1021.2
20260502230055 0 288 0.0 0.0 0.00 0.00 0.00 78 1021.2
20260502224552 0 288 0.0 0.0 0.00 0.00 0.00 79 1021.4
20260502223050 0 289 0.0 0.0 0.00 0.00 0.00 78 1021.5
20260502221558 1 291 0.0 1.6 0.00 0.00 0.00 77 1021.5
20260502220057 1 291 1.6 4.8 0.00 0.00 0.00 75 1021.6
20260502214543 1 245 0.0 0.0 0.00 0.00 0.00 76 1021.6
20260502213042 1 292 0.0 0.0 0.00 0.00 0.00 77 1021.7
20260502211540 1 294 0.0 0.0 0.00 0.00 0.00 77 1021.7
20260502210037 2 294 0.0 0.0 0.00 0.00 0.00 74 1021.7
20260502204537 2 294 0.0 0.0 0.00 0.00 0.00 76 1021.6
20260502203032 2 287 0.0 3.2 0.00 0.00 0.00 74 1021.6
20260502201529 3 287 1.6 4.8 0.00 0.00 0.00 70 1021.6